KC1UIX-13 Weather Reports


Display with metric or nautical units.
time (UTC)temp
F
wind
direction
speed
MPH
gust
MPH
rain 1hr
in
rain 24hr
in
rain mn
in
humidity
%
barometer
mb
20260504081017 43 260 3.0 6.0 0.00 0.00 0.00 65 1009.2
20260504050020 38 12 0.0 2.0 0.00 0.00 0.00 78 1008.9
20260504045017 39 206 0.0 2.0 0.00 0.00 0.00 76 1008.9
20260504044018 39 209 0.0 2.0 0.00 0.00 0.00 75 1008.9
20260504043018 40 237 0.0 2.0 0.00 0.00 0.00 76 1008.9
20260504042018 40 234 1.0 3.0 0.00 0.00 0.00 73 1008.9
20260504041018 40 238 3.0 6.0 0.00 0.00 0.00 73 1008.8
20260504040019 39 231 2.0 4.0 0.00 0.00 0.00 76 1008.7
20260504035018 39 239 1.0 3.0 0.00 0.00 0.00 76 1008.6
20260504034019 39 236 1.0 2.0 0.00 0.00 0.00 78 1008.6
20260504033019 38 229 1.0 2.0 0.00 0.00 0.00 77 1008.5
20260504032039 38 228 1.0 3.0 0.00 0.00 0.00 81 1008.5
20260504031019 38 232 1.0 3.0 0.00 0.00 0.00 79 1008.4
20260504030019 38 216 0.0 3.0 0.00 0.00 0.00 79 1008.3
20260504025059 38 261 0.0 1.0 0.00 0.00 0.00 80 1008.3
20260504024040 38 230 1.0 2.0 0.00 0.00 0.00 80 1008.4
20260504023020 39 235 1.0 2.0 0.00 0.00 0.00 79 1008.4
20260504022020 40 243 0.0 2.0 0.00 0.00 0.00 77 1008.4
20260504021017 41 263 0.0 2.0 0.00 0.00 0.00 72 1008.4
20260504020037 42 273 0.0 2.0 0.00 0.00 0.00 66 1008.4
20260504015017 43 250 1.0 3.0 0.00 0.00 0.00 63 1008.4
20260504014020 44 231 1.0 3.0 0.00 0.00 0.00 61 1008.4
20260504013020 45 233 1.0 3.0 0.00 0.00 0.00 58 1008.5
20260504012018 45 243 1.0 2.0 0.00 0.00 0.00 57 1008.4
20260504011018 46 258 1.0 2.0 0.00 0.00 0.00 57 1008.2
20260504010018 46 274 1.0 3.0 0.00 0.00 0.00 56 1008.0
20260504005018 47 275 2.0 4.0 0.00 0.00 0.00 55 1007.8
20260504004019 47 280 3.0 5.0 0.00 0.00 0.00 53 1007.6
20260504003019 47 283 3.0 8.0 0.00 0.00 0.00 53 1007.5
20260504002019 48 282 1.0 4.0 0.00 0.00 0.00 52 1007.3
20260504001019 48 287 3.0 7.0 0.00 0.00 0.00 51 1007.2
20260504000039 49 294 3.0 10.0 0.00 0.00 0.00 49 1007.0
20260503235019 49 302 5.0 11.0 0.00 0.00 0.00 48 1006.8
20260503234016 50 299 5.0 9.0 0.00 0.02 0.00 48 1006.7
20260503233017 51 293 5.0 14.0 0.00 0.03 0.00 47 1006.6
20260503232040 51 319 4.0 9.0 0.00 0.03 0.00 47 1006.4
20260503231020 52 301 5.0 11.0 0.00 0.03 0.00 46 1006.2
20260503230020 52 299 5.0 9.0 0.00 0.03 0.00 46 1006.0
20260503225017 52 311 5.0 10.0 0.00 0.03 0.00 46 1005.9
20260503224018 52 297 6.0 12.0 0.00 0.03 0.00 46 1005.8
20260503223018 51 301 5.0 13.0 0.00 0.03 0.00 48 1005.7
20260503222018 51 322 6.0 12.0 0.00 0.03 0.00 48 1005.5
20260503221018 52 316 5.0 11.0 0.00 0.03 0.00 48 1005.4
20260503220018 52 295 5.0 12.0 0.00 0.03 0.00 48 1005.3
20260503215018 54 296 8.0 16.0 0.00 0.03 0.00 47 1005.2
20260503214021 54 287 7.0 17.0 0.00 0.03 0.00 46 1005.0
20260503213059 54 282 7.0 17.0 0.00 0.03 0.00 47 1005.0
20260503212040 52 287 6.0 14.0 0.00 0.03 0.00 48 1004.9
20260503211019 52 312 4.0 10.0 0.00 0.03 0.00 49 1004.8
20260503210019 52 316 5.0 13.0 0.00 0.03 0.00 50 1004.7
20260503205016 52 290 7.0 13.0 0.00 0.03 0.00 50 1004.7
20260503204019 52 290 6.0 13.0 0.00 0.03 0.00 50 1004.7
20260503203020 53 288 6.0 11.0 0.00 0.03 0.00 51 1004.7
20260503202040 53 328 4.0 11.0 0.00 0.03 0.00 52 1004.6
20260503201100 53 318 4.0 13.0 0.00 0.03 0.00 53 1004.7
20260503200018 53 316 6.0 13.0 0.00 0.03 0.00 54 1004.8
20260503195037 52 330 4.0 12.0 0.00 0.03 0.00 56 1004.8
20260503194017 52 301 4.0 10.0 0.00 0.03 0.00 58 1004.9
20260503193018 52 306 5.0 13.0 0.00 0.03 0.00 58 1005.0
20260503192021 52 293 7.0 14.0 0.00 0.03 0.00 59 1005.0
20260503191018 52 306 5.0 12.0 0.00 0.03 0.00 59 1005.1
20260503190038 51 316 4.0 9.0 0.00 0.03 0.00 61 1005.1
20260503185018 50 315 4.0 11.0 0.00 0.03 0.00 62 1005.2
20260503184018 50 339 4.0 12.0 0.00 0.03 0.00 65 1005.2
20260503183019 49 329 5.0 10.0 0.00 0.03 0.00 67 1005.3
20260503182019 49 314 6.0 16.0 0.00 0.03 0.00 68 1005.3
20260503181039 49 296 5.0 12.0 0.00 0.03 0.00 69 1005.3
20260503180059 49 307 6.0 16.0 0.00 0.03 0.00 65 1005.3
20260503175019 50 307 5.0 12.0 0.00 0.03 0.00 62 1005.3
20260503174039 49 308 5.0 12.0 0.00 0.03 0.00 64 1005.3
20260503173019 48 334 5.0 12.0 0.00 0.03 0.00 65 1005.3
20260503172017 48 329 5.0 15.0 0.00 0.03 0.00 66 1005.3
20260503171017 47 321 7.0 14.0 0.00 0.03 0.00 66 1005.3
20260503131018 44 354 4.0 9.0 0.00 0.05 0.00 90 1005.8